CES5137 ZSSS-ZBAD

Flight info

Callsign CES5137
Flight time 1h 53m
Altitude 36100
Route POMOK G330 PIMOL A593 DALIM W157 AVBOX
Aircraft A20N/M-SDE2E3FGHIRWXY/LB1

Departure

Time 2026-05-05 13:03
Airport Shanghai Hongqiao International Airport (ZSSS)

Arrival

Time 2026-05-05 14:57
Airport Beijing Daxing International Airport (ZBAD)
Time Latitude Longitude Altitude Speed Heading
2026-05-05 12:36 31.19814 121.34198 14 ft 0 kts 177°
2026-05-05 12:51 31.19815 121.34198 15 ft 1 kts 178°
2026-05-05 12:51 31.19830 121.34197 15 ft 2 kts 177°
2026-05-05 12:51 31.19845 121.34197 14 ft 2 kts 178°
2026-05-05 12:52 31.19860 121.34196 14 ft 2 kts 177°
2026-05-05 12:52 31.19875 121.34195 14 ft 2 kts 178°
2026-05-05 12:52 31.19890 121.34194 14 ft 2 kts 177°
2026-05-05 12:52 31.19904 121.34197 15 ft 2 kts 224°
2026-05-05 12:53 31.19909 121.34207 14 ft 0 kts 262°
2026-05-05 12:53 31.19909 121.34216 15 ft 1 kts 268°
2026-05-05 12:53 31.19909 121.34217 15 ft 0 kts 267°
2026-05-05 12:55 31.19909 121.34213 14 ft 1 kts 267°
2026-05-05 12:55 31.19908 121.34180 15 ft 5 kts 267°
2026-05-05 12:56 31.19905 121.34120 14 ft 8 kts 266°
2026-05-05 12:56 31.19901 121.34048 14 ft 9 kts 266°
2026-05-05 12:56 31.19899 121.34006 14 ft 10 kts 265°
2026-05-05 12:56 31.19893 121.33928 15 ft 4 kts 264°
2026-05-05 12:57 31.19893 121.33923 14 ft 0 kts 264°
2026-05-05 12:57 31.19892 121.33918 14 ft 1 kts 264°
2026-05-05 12:57 31.19891 121.33894 14 ft 3 kts 277°
2026-05-05 12:57 31.19909 121.33884 14 ft 3 kts 346°
2026-05-05 12:58 31.19948 121.33878 14 ft 8 kts 355°
2026-05-05 12:58 31.20021 121.33871 14 ft 12 kts 355°
2026-05-05 12:58 31.20122 121.33867 14 ft 16 kts 359°
2026-05-05 12:58 31.20229 121.33858 14 ft 19 kts 355°
2026-05-05 12:59 31.20319 121.33852 14 ft 21 kts 358°
2026-05-05 12:59 31.20465 121.33854 15 ft 20 kts
2026-05-05 12:59 31.20610 121.33845 14 ft 20 kts 356°
2026-05-05 13:00 31.20880 121.33828 14 ft 18 kts 356°
2026-05-05 13:00 31.21011 121.33820 14 ft 18 kts 357°
2026-05-05 13:01 31.21280 121.33659 14 ft 15 kts 309°
2026-05-05 13:01 31.21308 121.33543 14 ft 15 kts 273°
2026-05-05 13:01 31.21303 121.33425 14 ft 11 kts 259°
2026-05-05 13:01 31.21299 121.33330 15 ft 12 kts 270°
2026-05-05 13:02 31.21295 121.33223 14 ft 14 kts 263°
2026-05-05 13:02 31.21215 121.33167 15 ft 14 kts 178°
2026-05-05 13:02 31.21112 121.33173 14 ft 14 kts 176°
2026-05-05 13:02 31.20890 121.33186 15 ft 65 kts 177°
2026-05-05 13:03 31.20209 121.33225 15 ft 129 kts 177°
2026-05-05 13:03 31.19166 121.33272 247 ft 158 kts 176°
2026-05-05 13:03 31.18067 121.33315 845 ft 161 kts 176°
2026-05-05 13:03 31.16995 121.33363 1703 ft 152 kts 175°
2026-05-05 13:04 31.15914 121.33418 2243 ft 164 kts 175°
2026-05-05 13:04 31.14714 121.33478 2721 ft 182 kts 176°
2026-05-05 13:04 31.13400 121.33541 3205 ft 199 kts 176°
2026-05-05 13:04 31.11934 121.33609 3611 ft 223 kts 176°
2026-05-05 13:05 31.10311 121.33682 4155 ft 242 kts 176°
2026-05-05 13:05 31.08571 121.33760 4672 ft 259 kts 177°
2026-05-05 13:05 31.06746 121.33660 4911 ft 265 kts 194°
2026-05-05 13:05 31.05147 121.32642 4956 ft 268 kts 223°
2026-05-05 13:06 31.04152 121.30819 4963 ft 271 kts 251°
2026-05-05 13:06 31.04014 121.28643 4959 ft 274 kts 278°
2026-05-05 13:06 31.04428 121.26447 4943 ft 275 kts 282°
2026-05-05 13:06 31.04859 121.24301 4922 ft 275 kts 281°
2026-05-05 13:07 31.05283 121.22107 5005 ft 280 kts 281°
2026-05-05 13:07 31.05702 121.19871 5719 ft 286 kts 281°
2026-05-05 13:07 31.06111 121.17641 6851 ft 282 kts 281°
2026-05-05 13:07 31.06567 121.15440 7800 ft 283 kts 290°
2026-05-05 13:08 31.07659 121.13551 8614 ft 288 kts 319°
2026-05-05 13:08 31.09401 121.12470 9486 ft 290 kts 346°
2026-05-05 13:08 31.11384 121.12251 10364 ft 292 kts 358°
2026-05-05 13:08 31.13462 121.12186 10902 ft 306 kts 357°
2026-05-05 13:09 31.15654 121.12103 11295 ft 324 kts 356°
2026-05-05 13:09 31.17962 121.11990 11682 ft 338 kts 356°
2026-05-05 13:09 31.20337 121.11861 11813 ft 341 kts 356°
2026-05-05 13:09 31.22695 121.11729 11793 ft 340 kts 356°
2026-05-05 13:10 31.25076 121.11593 11788 ft 340 kts 356°
2026-05-05 13:10 31.27435 121.11459 11812 ft 340 kts 356°
2026-05-05 13:10 31.29827 121.11323 11820 ft 340 kts 356°
2026-05-05 13:10 31.32190 121.11186 11818 ft 340 kts 356°
2026-05-05 13:11 31.34542 121.11073 11822 ft 340 kts 358°
2026-05-05 13:11 31.36938 121.11126 11822 ft 341 kts
2026-05-05 13:11 31.39313 121.11277 11808 ft 341 kts
2026-05-05 13:11 31.41682 121.11443 11802 ft 341 kts
2026-05-05 13:12 31.44044 121.11465 11808 ft 340 kts 353°
2026-05-05 13:12 31.46365 121.10913 11807 ft 339 kts 341°
2026-05-05 13:12 31.48565 121.09873 11806 ft 339 kts 335°
2026-05-05 13:12 31.50697 121.08727 11806 ft 339 kts 334°
2026-05-05 13:13 31.52850 121.07561 11845 ft 342 kts 334°
2026-05-05 13:13 31.55047 121.06381 12390 ft 348 kts 334°
2026-05-05 13:13 31.57222 121.05220 13294 ft 347 kts 334°
2026-05-05 13:13 31.59422 121.04048 14114 ft 348 kts 334°
2026-05-05 13:14 31.61613 121.02882 14849 ft 351 kts 334°
2026-05-05 13:14 31.63848 121.01693 15582 ft 354 kts 334°
2026-05-05 13:14 31.66099 121.00495 16298 ft 357 kts 333°
2026-05-05 13:14 31.68356 120.99291 16979 ft 360 kts 333°
2026-05-05 13:15 31.70661 120.98061 17654 ft 363 kts 333°
2026-05-05 13:15 31.72959 120.96833 18317 ft 366 kts 333°
2026-05-05 13:15 31.75270 120.95595 18986 ft 368 kts 333°
2026-05-05 13:15 31.77606 120.94344 19624 ft 371 kts 333°
2026-05-05 13:16 31.79956 120.93085 20256 ft 373 kts 333°
2026-05-05 13:16 31.82332 120.91812 20875 ft 376 kts 333°
2026-05-05 13:16 31.84687 120.90551 21468 ft 379 kts 333°
2026-05-05 13:16 31.87114 120.89250 22042 ft 382 kts 334°
2026-05-05 13:17 31.89531 120.87955 22600 ft 385 kts 334°
2026-05-05 13:17 31.91972 120.86645 23161 ft 387 kts 334°
2026-05-05 13:17 31.94415 120.85334 23690 ft 390 kts 334°
2026-05-05 13:17 31.96910 120.83995 24210 ft 392 kts 334°
2026-05-05 13:18 31.99373 120.82672 24707 ft 394 kts 334°
2026-05-05 13:18 32.01903 120.81312 25183 ft 397 kts 334°
2026-05-05 13:18 32.04410 120.79963 25637 ft 399 kts 334°
2026-05-05 13:18 32.06946 120.78596 26075 ft 402 kts 334°
2026-05-05 13:19 32.09477 120.77232 26495 ft 405 kts 335°
2026-05-05 13:19 32.12048 120.75829 26913 ft 407 kts 332°
2026-05-05 13:19 32.14355 120.73917 27257 ft 410 kts 316°
2026-05-05 13:19 32.16095 120.71222 27650 ft 415 kts 300°
2026-05-05 13:20 32.17100 120.68037 28015 ft 421 kts 284°
2026-05-05 13:20 32.17460 120.64605 28406 ft 425 kts 278°
2026-05-05 13:20 32.17736 120.61138 28852 ft 425 kts 278°
2026-05-05 13:20 32.18009 120.57698 29346 ft 424 kts 278°
2026-05-05 13:21 32.18289 120.54214 29823 ft 424 kts 279°
2026-05-05 13:21 32.18567 120.50802 30266 ft 422 kts 279°
2026-05-05 13:21 32.18851 120.47355 30719 ft 421 kts 279°
2026-05-05 13:21 32.19134 120.43929 31189 ft 419 kts 278°
2026-05-05 13:22 32.19411 120.40557 31613 ft 417 kts 278°
2026-05-05 13:22 32.19690 120.37154 32039 ft 415 kts 278°
2026-05-05 13:22 32.19963 120.33799 32476 ft 413 kts 278°
2026-05-05 13:22 32.20238 120.30415 32879 ft 411 kts 277°
2026-05-05 13:23 32.20509 120.27080 33271 ft 410 kts 278°
2026-05-05 13:23 32.20780 120.23776 33650 ft 408 kts 278°
2026-05-05 13:23 32.21055 120.20435 33986 ft 406 kts 277°
2026-05-05 13:23 32.21325 120.17156 34330 ft 404 kts 278°
2026-05-05 13:24 32.21592 120.13868 34634 ft 403 kts 277°
2026-05-05 13:24 32.21860 120.10564 34909 ft 403 kts 277°
2026-05-05 13:24 32.22123 120.07319 35163 ft 403 kts 277°
2026-05-05 13:24 32.22389 120.04006 35407 ft 402 kts 277°
2026-05-05 13:25 32.22651 120.00742 35675 ft 402 kts 277°
2026-05-05 13:25 32.22912 119.97477 35943 ft 401 kts 277°
2026-05-05 13:25 32.23169 119.94218 36194 ft 401 kts 277°
2026-05-05 13:25 32.23429 119.90945 36427 ft 401 kts 277°
2026-05-05 13:26 32.23687 119.87667 36640 ft 401 kts 277°
2026-05-05 13:26 32.24056 119.84419 36811 ft 401 kts 283°
2026-05-05 13:26 32.24801 119.81264 37000 ft 400 kts 291°
2026-05-05 13:26 32.25910 119.78249 37179 ft 401 kts 298°
2026-05-05 13:27 32.27342 119.75468 37324 ft 402 kts 305°
2026-05-05 13:27 32.29129 119.72881 37469 ft 403 kts 313°
2026-05-05 13:27 32.31157 119.70653 37604 ft 405 kts 320°
2026-05-05 13:27 32.33420 119.68640 37747 ft 407 kts 322°
2026-05-05 13:28 32.35709 119.66684 37877 ft 408 kts 322°
2026-05-05 13:28 32.38007 119.64732 38008 ft 409 kts 322°
2026-05-05 13:28 32.42630 119.60795 38055 ft 410 kts 322°
2026-05-05 13:29 32.47254 119.56842 38062 ft 409 kts 322°
2026-05-05 13:29 32.51843 119.52891 38048 ft 409 kts 322°
2026-05-05 13:30 32.56430 119.48928 38047 ft 409 kts 322°
2026-05-05 13:30 32.61008 119.44964 38048 ft 408 kts 322°
2026-05-05 13:31 32.65583 119.40998 38062 ft 407 kts 323°
2026-05-05 13:31 32.70161 119.37028 38045 ft 407 kts 323°
2026-05-05 13:32 32.74745 119.33046 38054 ft 407 kts 322°
2026-05-05 13:32 32.79298 119.29082 38053 ft 407 kts 322°
2026-05-05 13:33 32.83834 119.25131 38052 ft 406 kts 323°
2026-05-05 13:33 32.88405 119.21141 38061 ft 406 kts 323°
2026-05-05 13:34 32.92936 119.17182 38037 ft 405 kts 323°
2026-05-05 13:34 32.97489 119.13241 38058 ft 406 kts 323°
2026-05-05 13:35 33.02051 119.09323 38036 ft 405 kts 323°
2026-05-05 13:35 33.06614 119.05395 38040 ft 404 kts 323°
2026-05-05 13:36 33.11150 119.01476 38023 ft 403 kts 323°
2026-05-05 13:36 33.15692 118.97545 38038 ft 403 kts 324°
2026-05-05 13:37 33.20224 118.93620 38026 ft 402 kts 324°
2026-05-05 13:37 33.24749 118.89672 38034 ft 402 kts 323°
2026-05-05 13:38 33.29240 118.85744 38032 ft 402 kts 324°
2026-05-05 13:38 33.33748 118.81836 38034 ft 401 kts 324°
2026-05-05 13:39 33.38260 118.77933 38030 ft 399 kts 324°
2026-05-05 13:39 33.42728 118.74055 38023 ft 398 kts 324°
2026-05-05 13:40 33.47235 118.70138 38033 ft 398 kts 324°
2026-05-05 13:40 33.51698 118.66279 38018 ft 397 kts 324°
2026-05-05 13:41 33.56181 118.62397 38022 ft 396 kts 324°
2026-05-05 13:41 33.60639 118.58524 38028 ft 395 kts 324°
2026-05-05 13:42 33.65079 118.54665 38015 ft 395 kts 324°
2026-05-05 13:42 33.69503 118.50816 38010 ft 395 kts 324°
2026-05-05 13:43 33.73929 118.46954 38022 ft 394 kts 324°
2026-05-05 13:43 33.78343 118.43098 38011 ft 392 kts 324°
2026-05-05 13:44 33.82756 118.39236 38022 ft 390 kts 325°
2026-05-05 13:44 33.87144 118.35393 38022 ft 390 kts 326°
2026-05-05 13:45 33.91523 118.31552 38023 ft 390 kts 325°
2026-05-05 13:45 33.95878 118.27731 38023 ft 388 kts 325°
2026-05-05 13:46 34.00252 118.23913 38011 ft 387 kts 325°
2026-05-05 13:46 34.04618 118.20113 38014 ft 387 kts 325°
2026-05-05 13:47 34.08972 118.16320 38014 ft 386 kts 325°
2026-05-05 13:47 34.13294 118.12557 38009 ft 386 kts 325°
2026-05-05 13:48 34.17650 118.08759 38001 ft 386 kts 325°
2026-05-05 13:48 34.22051 118.04973 38013 ft 385 kts 328°
2026-05-05 13:49 34.26640 118.01668 38004 ft 385 kts 333°
2026-05-05 13:49 34.31502 117.98923 38006 ft 385 kts 338°
2026-05-05 13:50 34.36572 117.96771 37998 ft 385 kts 342°
2026-05-05 13:50 34.41702 117.94917 37997 ft 385 kts 342°
2026-05-05 13:51 34.46851 117.93070 38008 ft 385 kts 342°
2026-05-05 13:51 34.51982 117.91237 38007 ft 385 kts 342°
2026-05-05 13:52 34.57110 117.89397 38008 ft 384 kts 342°
2026-05-05 13:52 34.62238 117.87555 37997 ft 383 kts 342°
2026-05-05 13:53 34.67345 117.85722 37996 ft 385 kts 343°
2026-05-05 13:53 34.72527 117.83858 37987 ft 391 kts 343°
2026-05-05 13:54 34.77747 117.81977 37982 ft 394 kts 343°
2026-05-05 13:54 34.83022 117.80072 37976 ft 392 kts 343°
2026-05-05 13:55 34.88214 117.78170 37983 ft 391 kts 342°
2026-05-05 13:55 34.93413 117.76272 37989 ft 392 kts 342°
2026-05-05 13:56 34.98611 117.74367 37996 ft 390 kts 342°
2026-05-05 13:56 35.03827 117.72454 37990 ft 390 kts 342°
2026-05-05 13:57 35.08996 117.70561 37996 ft 388 kts 342°
2026-05-05 13:57 35.14178 117.68668 37993 ft 388 kts 342°
2026-05-05 13:58 35.19362 117.66769 37996 ft 389 kts 342°
2026-05-05 13:58 35.24507 117.64883 37999 ft 388 kts 342°
2026-05-05 13:59 35.32254 117.62028 37999 ft 387 kts 342°
2026-05-05 14:00 35.39994 117.59167 37991 ft 386 kts 342°
2026-05-05 14:00 35.45131 117.57267 37989 ft 387 kts 342°
2026-05-05 14:01 35.50254 117.55371 37988 ft 385 kts 342°
2026-05-05 14:01 35.55379 117.53468 37977 ft 384 kts 342°
2026-05-05 14:02 35.60499 117.51568 38110 ft 385 kts 342°
2026-05-05 14:02 35.65604 117.49664 37998 ft 384 kts 342°
2026-05-05 14:03 35.70704 117.47762 37980 ft 383 kts 342°
2026-05-05 14:03 35.75773 117.45870 37979 ft 383 kts 342°
2026-05-05 14:04 35.80872 117.43973 37980 ft 383 kts 342°
2026-05-05 14:04 35.85989 117.42064 37984 ft 382 kts 341°
2026-05-05 14:05 35.91056 117.40171 37971 ft 383 kts 342°
2026-05-05 14:05 35.96145 117.38261 37964 ft 382 kts 342°
2026-05-05 14:06 36.01214 117.36364 37963 ft 381 kts 342°
2026-05-05 14:06 36.06325 117.34486 37965 ft 381 kts 341°
2026-05-05 14:07 36.11413 117.32606 37972 ft 382 kts 341°
2026-05-05 14:07 36.16453 117.30742 37954 ft 381 kts 341°
2026-05-05 14:08 36.21538 117.28858 37956 ft 380 kts 341°
2026-05-05 14:08 36.26573 117.26985 37958 ft 380 kts 341°
2026-05-05 14:09 36.31653 117.25095 37950 ft 380 kts 341°
2026-05-05 14:09 36.36726 117.23207 37954 ft 380 kts 341°
2026-05-05 14:10 36.41721 117.21239 37949 ft 378 kts 339°
2026-05-05 14:10 36.46625 117.18806 37958 ft 379 kts 336°
2026-05-05 14:11 36.51492 117.16292 37952 ft 379 kts 336°
2026-05-05 14:11 36.56331 117.13777 37940 ft 379 kts 336°
2026-05-05 14:12 36.61180 117.11250 37928 ft 378 kts 336°
2026-05-05 14:12 36.66043 117.08717 37918 ft 379 kts 335°
2026-05-05 14:13 36.70901 117.06176 37900 ft 379 kts 336°
2026-05-05 14:13 36.75768 117.03633 37901 ft 379 kts 335°
2026-05-05 14:14 36.80595 117.01102 37884 ft 378 kts 336°
2026-05-05 14:14 36.85474 116.98543 37882 ft 377 kts 336°
2026-05-05 14:15 36.90289 116.96011 37883 ft 378 kts 336°
2026-05-05 14:15 36.95128 116.93469 37883 ft 378 kts 336°
2026-05-05 14:16 36.99984 116.90909 37894 ft 378 kts 336°
2026-05-05 14:16 37.04816 116.88361 37890 ft 378 kts 335°
2026-05-05 14:17 37.09670 116.85790 37883 ft 377 kts 335°
2026-05-05 14:17 37.14493 116.83240 37878 ft 378 kts 335°
2026-05-05 14:18 37.19355 116.80668 37871 ft 379 kts 336°
2026-05-05 14:18 37.24288 116.78470 37861 ft 379 kts 340°
2026-05-05 14:19 37.29328 116.76545 37852 ft 379 kts 340°
2026-05-05 14:19 37.34374 116.74627 37849 ft 379 kts 340°
2026-05-05 14:20 37.39425 116.72706 37846 ft 379 kts 340°
2026-05-05 14:20 37.44448 116.70792 37845 ft 379 kts 340°
2026-05-05 14:21 37.49497 116.68870 37843 ft 380 kts 340°
2026-05-05 14:21 37.54560 116.66936 37845 ft 379 kts 340°
2026-05-05 14:22 37.59584 116.65012 37850 ft 379 kts 340°
2026-05-05 14:22 37.64630 116.63080 37845 ft 379 kts 340°
2026-05-05 14:23 37.69651 116.61150 37840 ft 378 kts 340°
2026-05-05 14:23 37.74702 116.59229 37837 ft 378 kts 340°
2026-05-05 14:24 37.79733 116.57327 37822 ft 378 kts 340°
2026-05-05 14:24 37.82269 116.56365 37529 ft 380 kts 340°
2026-05-05 14:24 37.84770 116.55415 37230 ft 380 kts 340°
2026-05-05 14:25 37.87329 116.54442 36924 ft 381 kts 340°
2026-05-05 14:25 37.89842 116.53465 36626 ft 381 kts 338°
2026-05-05 14:25 37.92352 116.52347 36325 ft 381 kts 336°
2026-05-05 14:25 37.94787 116.51084 36023 ft 380 kts 334°
2026-05-05 14:26 37.97134 116.49694 35723 ft 370 kts 331°
2026-05-05 14:26 37.99415 116.48173 35414 ft 368 kts 329°
2026-05-05 14:26 38.01624 116.46520 34839 ft 370 kts 327°
2026-05-05 14:26 38.03754 116.44743 33999 ft 373 kts 325°
2026-05-05 14:27 38.05880 116.42835 33103 ft 378 kts 324°
2026-05-05 14:27 38.08014 116.40900 32251 ft 382 kts 323°
2026-05-05 14:27 38.10181 116.38923 31408 ft 387 kts 323°
2026-05-05 14:27 38.12380 116.36907 30572 ft 392 kts 323°
2026-05-05 14:28 38.14595 116.34877 29729 ft 397 kts 322°
2026-05-05 14:28 38.16834 116.32815 29164 ft 395 kts 322°
2026-05-05 14:28 38.19028 116.30792 28662 ft 392 kts 322°
2026-05-05 14:28 38.21244 116.28751 28149 ft 389 kts 322°
2026-05-05 14:29 38.23479 116.26868 27627 ft 390 kts 330°
2026-05-05 14:29 38.26058 116.25758 27099 ft 395 kts 345°
2026-05-05 14:29 38.28817 116.25590 26565 ft 401 kts
2026-05-05 14:29 38.31553 116.26302 26063 ft 405 kts
2026-05-05 14:30 38.34263 116.27232 25557 ft 405 kts 10°
2026-05-05 14:30 38.36985 116.28183 25042 ft 404 kts 10°
2026-05-05 14:30 38.39694 116.29129 24529 ft 403 kts 10°
2026-05-05 14:30 38.42377 116.30044 24012 ft 400 kts
2026-05-05 14:31 38.45084 116.30693 23432 ft 400 kts
2026-05-05 14:31 38.47840 116.31447 22857 ft 402 kts
2026-05-05 14:31 38.50523 116.32372 22350 ft 402 kts 12°
2026-05-05 14:31 38.53191 116.33396 21867 ft 400 kts 13°
2026-05-05 14:32 38.55829 116.34431 21380 ft 398 kts 13°
2026-05-05 14:32 38.58468 116.35445 20894 ft 395 kts 12°
2026-05-05 14:32 38.61085 116.36418 20405 ft 393 kts 12°
2026-05-05 14:32 38.63722 116.37416 19902 ft 391 kts 14°
2026-05-05 14:33 38.66275 116.38570 19431 ft 390 kts 18°
2026-05-05 14:33 38.68770 116.39878 18976 ft 387 kts 19°
2026-05-05 14:33 38.71213 116.41199 18507 ft 385 kts 20°
2026-05-05 14:33 38.73695 116.42542 18011 ft 383 kts 20°
2026-05-05 14:34 38.76121 116.43854 17534 ft 381 kts 20°
2026-05-05 14:34 38.78557 116.45170 17060 ft 378 kts 20°
2026-05-05 14:34 38.80967 116.46468 16593 ft 375 kts 20°
2026-05-05 14:34 38.83353 116.47755 16126 ft 372 kts 20°
2026-05-05 14:35 38.85725 116.49033 15662 ft 369 kts 19°
2026-05-05 14:35 38.88074 116.50298 15194 ft 366 kts 19°
2026-05-05 14:35 38.90433 116.51566 14723 ft 363 kts 19°
2026-05-05 14:35 38.92759 116.52818 14255 ft 360 kts 19°
2026-05-05 14:36 38.95043 116.54051 13799 ft 357 kts 19°
2026-05-05 14:36 38.97336 116.55287 13332 ft 354 kts 19°
2026-05-05 14:36 38.99585 116.56500 12868 ft 352 kts 19°
2026-05-05 14:36 39.01831 116.57713 12411 ft 349 kts 19°
2026-05-05 14:37 39.04060 116.58917 11956 ft 346 kts 20°
2026-05-05 14:37 39.06279 116.60061 11500 ft 343 kts 14°
2026-05-05 14:37 39.08584 116.60634 11043 ft 337 kts
2026-05-05 14:37 39.10905 116.60536 10577 ft 333 kts 351°
2026-05-05 14:38 39.13177 116.60190 10255 ft 326 kts 350°
2026-05-05 14:38 39.15402 116.59821 10100 ft 313 kts 349°
2026-05-05 14:38 39.17525 116.59472 9897 ft 303 kts 350°
2026-05-05 14:38 39.19554 116.59144 9791 ft 291 kts 350°
2026-05-05 14:39 39.21516 116.58833 9665 ft 278 kts 350°
2026-05-05 14:39 39.23449 116.58528 9317 ft 276 kts 349°
2026-05-05 14:39 39.25342 116.58230 8978 ft 273 kts 350°
2026-05-05 14:39 39.27210 116.57936 8646 ft 273 kts 349°
2026-05-05 14:40 39.29086 116.57645 8203 ft 277 kts 349°
2026-05-05 14:40 39.31090 116.57327 7220 ft 301 kts 349°
2026-05-05 14:40 39.33171 116.57001 6740 ft 302 kts 349°
2026-05-05 14:40 39.35240 116.56682 6507 ft 293 kts 349°
2026-05-05 14:41 39.37245 116.56373 6515 ft 290 kts 349°
2026-05-05 14:41 39.39243 116.56060 6540 ft 292 kts 349°
2026-05-05 14:41 39.41273 116.55743 6562 ft 292 kts 349°
2026-05-05 14:41 39.43292 116.55427 6527 ft 292 kts 349°
2026-05-05 14:42 39.45315 116.55109 6245 ft 293 kts 349°
2026-05-05 14:42 39.47332 116.54797 5879 ft 292 kts 349°
2026-05-05 14:42 39.49363 116.54479 5518 ft 291 kts 349°
2026-05-05 14:42 39.51344 116.54170 5169 ft 290 kts 348°
2026-05-05 14:43 39.53360 116.53855 4815 ft 289 kts 348°
2026-05-05 14:43 39.55336 116.53544 4468 ft 288 kts 348°
2026-05-05 14:43 39.57315 116.53234 4127 ft 287 kts 348°
2026-05-05 14:43 39.59314 116.52920 3785 ft 286 kts 348°
2026-05-05 14:44 39.61296 116.52609 3449 ft 286 kts 348°
2026-05-05 14:44 39.63252 116.52300 3117 ft 285 kts 348°
2026-05-05 14:44 39.65197 116.51994 2979 ft 275 kts 348°
2026-05-05 14:44 39.67033 116.51708 2948 ft 260 kts 348°
2026-05-05 14:45 39.68800 116.51431 2912 ft 247 kts 348°
2026-05-05 14:45 39.70493 116.51165 2883 ft 246 kts 348°
2026-05-05 14:45 39.72198 116.50891 2781 ft 245 kts 348°
2026-05-05 14:45 39.73869 116.50626 2655 ft 237 kts 348°
2026-05-05 14:46 39.75470 116.50372 2524 ft 229 kts 349°
2026-05-05 14:46 39.77031 116.50124 2291 ft 227 kts 349°
2026-05-05 14:46 39.78608 116.49870 2017 ft 226 kts 350°
2026-05-05 14:46 39.80094 116.49458 1950 ft 214 kts 326°
2026-05-05 14:47 39.81041 116.48124 1990 ft 192 kts 281°
2026-05-05 14:47 39.80974 116.46598 1990 ft 158 kts 241°
2026-05-05 14:47 39.80531 116.45379 1956 ft 142 kts 239°
2026-05-05 14:47 39.80175 116.44196 1951 ft 141 kts 244°
2026-05-05 14:48 39.79902 116.42974 1959 ft 142 kts 249°
2026-05-05 14:48 39.79690 116.41711 1961 ft 142 kts 251°
2026-05-05 14:48 39.79519 116.40447 1962 ft 142 kts 253°
2026-05-05 14:48 39.79372 116.39181 1966 ft 142 kts 254°
2026-05-05 14:49 39.79236 116.37915 1963 ft 142 kts 254°
2026-05-05 14:49 39.79092 116.36651 1959 ft 139 kts 244°
2026-05-05 14:49 39.78463 116.35784 1963 ft 138 kts 198°
2026-05-05 14:49 39.77500 116.35627 1986 ft 142 kts 181°
2026-05-05 14:50 39.76517 116.35710 1962 ft 141 kts 176°
2026-05-05 14:50 39.75538 116.35853 1958 ft 141 kts 175°
2026-05-05 14:50 39.74555 116.36003 1959 ft 141 kts 175°
2026-05-05 14:50 39.73578 116.36156 1949 ft 141 kts 174°
2026-05-05 14:51 39.72602 116.36311 1952 ft 141 kts 175°
2026-05-05 14:51 39.71625 116.36465 1956 ft 141 kts 175°
2026-05-05 14:51 39.70650 116.36622 1959 ft 141 kts 175°
2026-05-05 14:51 39.69677 116.36777 1959 ft 141 kts 175°
2026-05-05 14:52 39.68708 116.36932 1957 ft 141 kts 175°
2026-05-05 14:52 39.67725 116.37087 1963 ft 141 kts 175°
2026-05-05 14:52 39.66750 116.37242 1962 ft 141 kts 176°
2026-05-05 14:52 39.65776 116.37397 1965 ft 141 kts 175°
2026-05-05 14:53 39.64804 116.37552 1984 ft 140 kts 176°
2026-05-05 14:53 39.63836 116.37706 1982 ft 141 kts 176°
2026-05-05 14:53 39.62865 116.37859 1982 ft 140 kts 176°
2026-05-05 14:53 39.61893 116.38013 1975 ft 140 kts 176°
2026-05-05 14:54 39.60928 116.38165 1839 ft 140 kts 175°
2026-05-05 14:54 39.59960 116.38318 1660 ft 139 kts 174°
2026-05-05 14:54 39.59002 116.38468 1484 ft 139 kts 174°
2026-05-05 14:54 39.58046 116.38619 1306 ft 138 kts 174°
2026-05-05 14:55 39.57089 116.38771 1133 ft 138 kts 174°
2026-05-05 14:55 39.56142 116.38921 952 ft 137 kts 174°
2026-05-05 14:55 39.55197 116.39071 775 ft 137 kts 174°
2026-05-05 14:55 39.54250 116.39222 592 ft 136 kts 174°
2026-05-05 14:56 39.53309 116.39370 415 ft 135 kts 174°
2026-05-05 14:56 39.52389 116.39516 224 ft 130 kts 174°
2026-05-05 14:56 39.51517 116.39657 114 ft 123 kts 174°
2026-05-05 14:56 39.50759 116.39779 90 ft 88 kts 173°
2026-05-05 14:57 39.50315 116.39850 90 ft 47 kts 173°
2026-05-05 14:57 39.50090 116.39930 90 ft 25 kts 132°
2026-05-05 14:57 39.50022 116.39993 90 ft 11 kts 155°
2026-05-05 14:57 39.49954 116.40052 90 ft 12 kts 144°
2026-05-05 14:58 39.49902 116.40121 90 ft 8 kts 58°
2026-05-05 14:58 39.49958 116.40119 90 ft 8 kts 352°
2026-05-05 14:58 39.50024 116.40110 90 ft 10 kts 354°
2026-05-05 14:58 39.50099 116.40101 90 ft 11 kts 354°
2026-05-05 14:59 39.50184 116.40091 90 ft 12 kts 354°
2026-05-05 14:59 39.50276 116.40080 90 ft 13 kts 354°
2026-05-05 14:59 39.50375 116.40066 90 ft 14 kts 353°
2026-05-05 14:59 39.50480 116.40049 90 ft 15 kts 352°
2026-05-05 15:00 39.50579 116.40032 90 ft 13 kts 353°
2026-05-05 15:00 39.50645 116.40022 90 ft 14 kts 352°
2026-05-05 15:00 39.50781 116.39996 90 ft 15 kts 351°
2026-05-05 15:00 39.50890 116.39976 90 ft 16 kts 353°
2026-05-05 15:01 39.50967 116.39980 90 ft 8 kts 53°
2026-05-05 15:01 39.50982 116.40060 90 ft 9 kts 85°
2026-05-05 15:01 39.50996 116.40151 90 ft 10 kts 76°
2026-05-05 15:01 39.51003 116.40250 90 ft 11 kts 89°
2026-05-05 15:02 39.51005 116.40359 90 ft 12 kts 88°
2026-05-05 15:02 39.51006 116.40454 90 ft 5 kts 96°
2026-05-05 15:02 39.51018 116.40492 90 ft 4 kts 16°
2026-05-05 15:02 39.51050 116.40500 90 ft 4 kts 10°
2026-05-05 15:03 39.51062 116.40503 90 ft 1 kts
2026-05-05 15:03 39.51073 116.40505 90 ft 0 kts